Showing default

AISAT, 40054

Orbit data source: Space-Track

AISAT, 40054 is a payload satellite owned by DLR (DE) in SSO that was launched on Mon, 30 Jun 2014 UTC via a PSLV launch vehicle from the Sirharikota (SRI). Payload-class satellites include a variety of spacecraft equipped with specific instruments for various scientific and technological missions. These include communications satellites like Starlink; space stations such as the ISS; scientific satellites like the Hubble; Earth observation satellites from companies like Planet Labs, Umbra, and HawkEye 360; GPS; miniature CubeSats for education and research; and military/defense satellites.

Loading next visibility...
Identifier
40054, 2014-034B
Orbit
SSO
Last TLE update
11 hours ago
Origin
Manufacturer
DLR-ISS
Mission
Non-operational Civil Communications
Bus & Motor
CLAVIS, Unknown motor
Mass
10 kg wet, 10 kg dry
Launch date (UTC)
2014-06-30 (11 years ago)
Launch vehicle
PSLV
Launch site
Sirharikota (SRI)
Object type
Payload
Rocket body
Debris
Shape & HBR
Box + 1 Truss, 4 m
Radar Cross Section
0.040 m², Medium (>0.1 m² and < 1m²)

Expand to show TLE details & history

TLE from 11 hours ago
0 AISAT
1 40054U 14034B   25191.65092995  .00003302  00000-0  26854-3 0  9994
2 40054  98.2846  76.0425 0010649 267.0808  92.9195 15.00307532595850
Epoch: 2025-07-10T15:37Z
TLE epoch observation values (Epoch: 2025-07-10T15:37:20.347Z)
Latitude
-0.00005°
Longitude
-87.10643°
Altitude
569.369 km
Speed
7.576 km/s
True Right ascension
05h 04m 10s
True Declination
0° 00' 00"
Sunlit
Object was in daylight at epoch
Visualization orbit readout
Latitude
-41.55634°
Longitude
-79.24201°
Altitude
577.412 km
Speed
7.573 km/s
Apparent Right ascension
04h 17m 55s
Apparent Declination
-42° 22' 12"
Sunlit
Object is in daylight
Visualization observer readout
Local Sidereal Time
14:55:01
Azimuth
254.3° W
Elevation
-74.242°
Doppler factor
1
Orbital elements
Apogee altitude
570.37 km
Perigee altitude
555.587 km
Semi-major axis
6,941.116 km
Eccentricity
0.00106
Inclination
98.2846°
RAAN
76.0425°
Arg. of periapsis
267.0808°
True anomaly
Unknown
Mean anomaly
92.9195°
Eccentric anomaly
Unknown
Mean motion
3.75318 °/min
Orbital period
95.92 mins
BSTAR
0.00026854
Loading maneuver chart data...
Loading SW <> Apogee altitude chart data...
Loading historical data...
Loading historical data...
Loading historical data...
Loading historical data...
Loading historical data...
Loading historical data...
Loading historical data...
Other satellites on launch #34 in the year 2014 (2014-06-30 UTC)

AISAT Visibility forecast

Observer location: undefined°, undefined°

Span
Click to sort rows by Start time (UTC) header in descending order
Start Az.
Max El. time (UTC)
Max El. Az.
Max El.
End time (UTC)
End Az.
7 mins2025-07-11 04:59:25.862Z21.766° NNE2025-07-11 05:03:25.862Z127.722° SE39.891°2025-07-11 05:06:25.862Z179.952° S
5 mins2025-07-11 15:47:25.862Z118.076° SE2025-07-11 15:49:25.862Z61.322° ENE30.1°2025-07-11 15:52:25.862Z7.316° NNE
|